Tracking 30289 objects as of 29-Apr-2025
HD Live streaming from Space Station
objects crossing your sky now

QPS-SAR-9

Track QPS-SAR-9 now!
10-day predictions


NORAD ID: 63205
Int'l Code: 2025-050A
Perigee: 578.2 km
Apogee: 584.2 km
Inclination: 42.0 °
Period: 96.1 minutes
Semi major axis: 6952 km
RCS: Unknown
Launch date: March 15, 2025
Source: New Zealand (NZ)
Launch site: Rocket Lab Launch Complex (RLLC)
Your satellite tracking list
Your tracking list is empty




NASA's NSSDC Master Catalog

Two Line Element Set (TLE):
1 63205U 25050A   25119.18769416  .00009275  00000-0  79348-3 0  9995
2 63205  42.0210 220.1045 0004310 227.3506 132.6956 14.97673807  6767
Source of the keplerian elements: AFSPC